Temperature
20 20 19 19 18 18 19 21 23 25 25 26 26 25 23 22 23 22 21 22 21 21 20 20 20 20 20 20 21 21 21 20 20 20 20 20 20 19 19 19 19 19 19 19 19 19 19 19 19
20 19 19 19 18 20 22 23 25 25 26 26 26 25 23 21 21 21 22 21 21 21 21 20 20 20 20 20 20 20 20 20 20 20 20 20 20 19 19 19 19 19 19 19 19 19 19 19 19
20 19 19 17 19 20 22 25 25 26 27 26 25 24 23 21 22 23 23 22 21 21 21 20 20 20 20 20 20 20 20 20 20 20 20 20 20 19 19 19 19 19 19 19 19 19 19 19 19
20 19 19 17 20 21 22 24 25 26 27 26 25 23 22 21 22 23 23 22 21 21 21 20 20 20 20 20 20 20 20 20 20 20 20 20 19 19 19 19 19 19 19 19 19 19 19 19 19
20 19 18 18 19 21 23 25 26 26 25 25 24 21 20 21 23 23 23 22 22 21 21 20 20 20 20 20 20 20 20 20 20 19 19 19 19 19 19 19 19 19 19 19 19 19 19 19 18
20 18 18 19 21 23 24 26 25 25 25 24 23 21 20 21 22 22 22 22 21 21 21 20 20 20 20 20 20 20 20 19 19 19 19 19 19 19 19 19 19 19 19 19 19 19 19 19 18
20 17 19 20 21 23 25 26 25 24 24 24 23 20 19 20 21 22 22 21 21 21 21 20 20 20 20 20 20 20 20 19 19 19 19 19 19 19 19 19 19 19 19 19 19 19 19 19 19
21 17 20 20 21 23 24 25 24 24 24 24 23 20 20 20 21 21 21 21 20 20 20 20 20 20 20 20 20 20 19 19 19 19 19 19 18 18 18 18 18 18 18 18 19 19 19 19 19
21 18 18 20 22 23 24 24 24 24 23 23 22 22 22 21 21 21 21 20 20 20 20 20 20 20 20 20 19 19 19 19 19 19 18 18 18 18 18 18 18 18 18 18 18 18 18 19 18
21 18 20 21 22 23 24 23 23 23 22 21 20 21 21 21 20 21 21 21 21 20 20 20 20 20 20 19 19 19 19 19 19 19 18 18 18 18 18 18 18 18 18 18 18 18 18 18 18
20 19 21 22 24 24 23 22 22 21 20 20 19 19 20 20 20 20 21 21 21 21 20 20 20 20 19 19 19 19 19 19 19 19 18 18 18 18 18 18 18 18 18 18 18 18 18 18 18
20 21 22 23 24 23 22 21 20 19 19 19 19 20 19 19 19 20 20 20 20 20 20 20 20 19 19 19 19 18 18 18 18 18 18 18 18 18 18 18 18 17 17 17 17 17 17 17 17
21 21 23 22 22 21 21 20 19 18 18 19 19 19 19 19 19 19 20 20 20 20 20 19 19 19 19 18 18 18 18 18 18 18 18 18 18 17 18 17 17 17 17 17 17 17 17 17 17
22 22 22 22 21 21 19 18 18 17 18 19 19 18 18 18 18 19 19 19 19 19 19 19 19 19 18 18 18 18 18 18 18 17 17 17 17 17 17 17 17 17 17 17 17 17 17 17 17
23 22 21 20 20 20 20 18 18 17 18 18 18 18 18 18 18 18 19 19 19 19 19 19 19 18 18 18 18 17 17 17 17 17 17 17 17 17 17 16 16 17 17 17 17 16 16 16 16
22 20 20 20 20 20 19 18 18 17 18 17 17 17 18 18 18 18 18 19 19 19 19 18 18 18 18 18 17 17 17 17 17 17 16 16 16 16 16 16 16 16 16 16 16 16 16 16 16
20 20 20 20 20 19 18 17 17 17 17 17 17 17 18 18 18 18 18 18 19 19 19 18 18 18 18 17 17 17 17 17 16 16 16 16 16 16 16 16 16 16 16 16 16 16 15 15 15
21 20 20 19 19 19 17 17 17 17 17 17 17 17 18 18 18 18 18 19 19 19 18 18 18 18 18 17 17 17 17 17 16 16 16 16 16 16 15 15 15 15 15 15 15 15 15 15 15
21 20 20 19 19 18 17 17 17 17 17 17 17 17 18 18 18 18 18 18 19 19 19 18 18 18 18 17 17 17 17 16 16 16 16 15 15 15 15 15 15 14 14 14 14 14 14 14 14
21 20 19 19 19 18 17 17 17 17 17 17 17 17 18 18 18 18 18 18 19 19 19 18 18 18 18 17 17 17 16 16 16 15 15 15 14 14 14 14 14 14 14 14 14 14 14 14 13
21 20 19 19 19 18 18 18 17 17 17 17 17 18 18 18 19 19 19 19 19 19 18 18 18 18 17 17 16 16 16 15 15 15 14 14 14 13 13 13 13 13 13 13 13 13 13 13 13
21 21 20 19 18 16 17 17 17 16 16 17 17 18 18 19 19 19 19 19 19 19 18 18 17 17 17 16 16 15 15 15 14 14 14 13 13 13 12 12 12 12 12 13 13 13 13 13 13
20 20 19 18 17 16 16 16 16 16 17 17 17 18 19 19 19 19 19 19 19 18 18 17 17 17 16 16 15 15 14 14 13 13 13 12 12 12 12 12 12 12 12 12 12 12 12 12 12
20 18 17 15 15 17 16 16 16 16 17 17 18 19 19 20 20 19 19 19 19 18 18 17 17 16 16 15 15 14 14 13 13 12 12 12 12 11 11 11 11 11 11 11 11 12 12 12 12
19 17 17 17 16 16 16 16 16 17 17 17 18 19 20 20 20 20 19 19 19 18 18 17 17 16 15 15 14 14 13 13 12 12 11 11 11 11 11 10 10 10 10 10 11 11 11 11 11
19 18 18 19 18 16 16 16 16 18 18 19 19 19 20 20 20 20 19 19 19 18 17 17 16 15 15 14 13 13 12 12 12 11 11 11 10 10 10 10 10 10 10 10 10 10 10 11 11
19 18 17 16 16 17 16 16 17 18 18 18 18 19 20 20 20 20 19 19 18 18 17 16 15 15 14 13 13 12 12 11 11 11 11 10 10 10 10 10 9 9 9 9 9 10 10 10 10
20 17 15 16 17 18 18 17 17 19 19 18 18 19 20 20 20 19 19 19 18 17 16 15 15 14 13 13 12 12 11 11 11 10 10 10 10 10 9 9 9 9 9 9 9 9 9 9 10
21 19 15 14 16 16 17 17 17 18 18 17 18 20 20 20 20 19 19 18 17 16 16 15 14 13 13 12 12 11 11 11 10 10 10 10 10 9 9 9 9 9 9 9 9 9 9 9 9
22 20 17 18 17 15 16 17 18 17 17 18 19 20 20 20 19 19 18 17 17 16 15 14 13 13 12 12 11 11 11 10 10 10 10 9 9 9 9 9 9 9 9 9 8 9 9 9 9
Wind_Speed
13 9 3 2 3 2 5 5 4 4 3 3 5 7 7 5 2 3 3 10 15 14 15 19 20 20 20 20 20 20 19 19 19 18 18 17 17 16 15 14 13 12 11 10 9 8 8 8 9
9 5 2 3 2 3 5 4 4 3 1 2 5 6 7 5 4 6 6 10 15 13 14 17 19 19 19 19 19 19 19 18 18 17 17 16 15 15 14 13 12 11 10 9 9 8 8 8 8
7 2 4 3 0 3 6 5 4 4 1 1 4 5 5 4 5 5 7 14 14 11 13 17 20 19 18 18 18 18 17 17 16 16 15 15 14 13 13 12 11 10 10 9 8 8 8 8 8
4 3 4 3 4 5 6 9 7 3 2 4 5 5 4 4 3 7 14 16 15 11 12 17 19 18 18 17 17 17 16 15 15 14 14 14 13 12 11 11 10 9 9 8 8 7 7 7 7
3 4 4 3 6 6 7 8 4 0 2 4 5 5 4 5 8 14 16 17 15 11 10 15 18 17 17 16 16 15 15 14 14 13 13 12 12 11 10 10 9 9 9 8 8 7 7 7 7
4 4 3 3 7 7 6 5 4 5 4 4 5 4 3 4 9 12 13 13 13 12 9 13 17 17 16 15 15 14 14 13 13 12 12 12 12 11 10 10 9 9 9 8 8 8 8 7 7
4 4 1 4 6 6 6 7 6 5 4 3 4 5 3 4 6 10 11 12 11 8 7 8 12 14 15 14 14 13 13 13 12 12 12 12 12 11 11 10 10 10 10 9 9 9 9 9 8
5 4 1 4 5 6 6 6 4 5 3 4 4 6 5 6 10 11 11 10 10 7 6 5 7 9 10 11 12 12 12 12 12 12 12 12 11 11 11 11 11 11 11 11 11 11 11 11 10
4 4 2 5 4 5 5 5 5 4 4 5 5 2 7 15 14 12 11 9 9 8 5 5 5 5 6 7 9 10 10 10 10 10 11 11 9 9 9 10 12 12 12 12 13 13 13 12 12
4 3 7 6 5 4 4 4 4 5 7 6 6 8 15 14 12 12 11 11 10 9 7 4 4 4 4 4 5 5 6 7 7 6 7 7 7 7 9 9 12 13 13 13 14 14 14 13 11
6 7 6 6 6 4 2 3 5 5 6 4 4 9 12 12 9 8 7 7 7 7 7 5 3 3 3 2 2 3 4 4 5 6 6 6 5 6 7 6 8 9 10 10 11 12 12 11 10
5 7 6 5 3 2 2 3 6 8 5 5 7 8 9 9 6 6 6 6 6 6 5 5 5 3 3 3 2 3 3 3 5 7 7 6 4 4 4 4 5 5 6 6 7 8 10 11 12
5 5 3 3 2 4 8 8 7 7 7 10 12 11 9 8 5 4 5 5 6 6 5 4 5 4 3 2 1 1 1 3 3 4 6 7 4 4 3 4 5 5 5 5 4 5 6 6 8
4 1 3 4 4 5 10 7 6 5 6 10 12 10 8 7 6 5 6 6 6 6 5 4 5 4 3 2 1 0 1 0 1 2 3 5 5 3 2 3 3 3 4 4 3 4 4 4 4
1 1 4 6 4 3 8 9 5 3 6 9 10 9 8 7 6 6 5 6 6 5 5 5 5 5 4 3 2 1 1 1 1 1 1 2 2 2 2 2 2 3 4 3 2 3 3 4 5
3 4 4 5 4 2 7 5 1 1 6 7 7 7 7 6 5 5 5 6 5 6 5 4 5 5 4 3 2 2 2 1 1 1 1 1 0 1 1 1 2 2 2 2 2 2 2 4 5
5 2 1 3 5 2 5 5 2 1 5 6 5 5 5 5 3 3 4 5 5 5 6 5 5 5 4 3 2 2 2 2 2 2 2 2 1 0 1 1 2 2 1 2 2 1 2 4 5
3 2 1 1 3 4 5 5 3 2 3 4 4 3 3 4 3 2 3 4 5 5 5 5 5 4 4 3 2 2 2 2 2 2 2 2 2 2 1 1 2 1 1 2 2 3 2 3 4
3 3 2 1 1 4 5 4 3 2 2 2 3 4 4 4 3 3 3 4 4 4 4 4 4 4 3 2 2 2 1 1 1 2 3 3 3 3 2 1 2 1 2 3 3 2 2 3 2
4 3 2 2 2 3 4 2 1 2 3 4 5 6 6 4 4 5 5 4 4 4 4 4 4 3 2 2 1 1 1 0 0 1 3 3 4 4 3 2 2 2 2 3 3 2 2 2 1
2 4 4 4 3 5 2 2 1 2 1 2 4 4 5 7 8 7 7 7 6 5 5 4 4 3 2 2 2 2 2 2 2 2 2 3 4 5 4 3 3 3 3 3 4 3 4 3 2
1 2 6 6 4 3 3 2 4 2 3 4 4 4 6 7 7 7 7 7 7 6 4 4 4 3 2 2 2 2 1 1 3 2 2 4 5 5 5 4 4 4 3 4 4 3 4 4 4
3 6 7 6 5 3 5 2 6 1 3 5 6 6 6 7 8 8 8 7 5 4 5 5 4 3 2 2 2 2 2 3 2 2 4 5 5 5 5 5 4 4 3 4 4 3 4 4 4
8 7 7 6 5 3 3 1 6 3 5 5 5 5 6 6 7 7 5 4 3 3 4 4 4 3 2 2 1 2 4 4 4 5 5 5 4 4 5 5 4 4 4 4 4 4 4 4 5
5 6 4 5 4 3 2 1 7 7 7 6 6 6 6 5 5 5 5 4 4 3 3 3 3 2 2 1 2 3 4 4 5 6 6 6 4 4 6 5 4 4 5 5 5 4 5 5 5
4 7 6 4 3 3 2 4 7 6 6 6 6 5 4 3 3 4 5 5 4 4 3 3 3 2 1 2 3 3 4 4 4 6 6 6 5 6 7 7 6 6 6 6 5 5 6 5 6
7 4 6 7 3 1 4 6 8 4 4 4 4 4 4 4 4 4 4 4 3 3 3 3 3 2 3 3 4 4 5 5 6 6 6 6 6 6 7 7 7 7 7 7 6 5 7 6 6
5 8 6 6 4 1 4 4 5 7 7 6 5 6 5 4 4 4 3 3 2 2 2 2 2 3 3 4 4 4 5 6 6 6 7 7 7 7 7 8 8 8 7 7 6 6 7 7 7
3 5 6 5 5 6 3 7 7 9 9 9 9 7 7 7 6 4 2 1 1 1 1 2 3 3 4 5 5 5 6 6 6 6 7 7 7 8 8 9 8 9 9 8 7 8 8 8 9
1 5 7 5 3 4 4 7 6 8 8 8 8 6 6 6 4 2 2 1 1 2 3 4 4 5 6 5 5 6 7 6 6 7 8 7 8 8 9 9 9 10 9 8 8 9 9 9 10
Wind_Direction
139 133 114 81 46 16 273 259 250 303 338 24 66 84 92 85 119 147 116 134 133 142 151 152 150 145 140 136 134 133 132 133 134 136 138 141 144 147 149 151 152 151 149 144 137 132 129 127 126
135 133 83 71 67 337 286 259 272 283 228 129 73 76 74 71 76 106 125 135 138 141 146 151 150 147 144 140 138 137 137 138 139 142 144 146 148 150 153 155 155 155 153 149 146 142 140 137 135
145 131 97 81 144 237 280 290 297 311 300 35 67 55 69 90 123 133 143 138 134 136 142 153 153 151 148 145 142 141 141 142 145 147 150 152 153 156 159 160 161 161 159 156 156 154 151 148 147
133 68 67 64 267 246 250 279 290 288 10 51 85 63 56 31 122 136 136 138 136 134 143 156 155 155 153 150 148 146 147 149 152 155 157 159 161 164 166 168 170 168 167 167 166 166 163 162 161
77 84 52 336 276 264 261 277 297 305 38 50 80 82 41 17 101 127 136 141 141 136 143 156 156 157 157 156 154 154 155 157 161 164 167 169 172 175 177 178 182 183 180 180 179 179 178 179 179
64 68 65 300 286 287 299 330 16 45 56 72 79 83 47 91 117 129 135 138 141 140 140 153 158 160 162 163 163 163 165 167 171 176 179 183 185 187 189 191 196 200 198 196 195 193 193 195 196
110 106 190 266 289 307 335 357 26 33 46 57 92 93 90 124 121 122 126 130 132 129 129 140 155 162 166 169 171 173 175 178 181 186 190 195 199 199 201 203 208 212 211 209 209 208 208 208 210
133 107 312 280 279 294 325 357 18 28 31 53 77 129 162 156 127 118 120 127 130 123 121 120 134 148 160 172 179 181 185 187 191 195 200 205 209 210 211 212 216 221 220 217 220 221 220 219 220
112 77 261 248 248 278 326 3 359 19 48 41 34 89 137 132 129 125 128 134 145 147 129 123 124 130 147 169 188 190 194 199 203 208 212 214 218 221 225 225 226 231 231 229 231 232 231 231 230
116 167 231 228 219 253 325 3 356 41 45 39 40 71 114 129 136 141 148 156 165 167 160 140 130 126 142 180 193 195 201 205 208 215 227 225 223 228 234 239 242 242 241 241 241 241 239 239 236
174 207 242 255 242 244 291 18 23 74 49 38 101 118 129 136 141 149 154 162 167 160 163 155 140 135 155 191 190 200 210 213 212 215 222 228 231 238 244 246 257 261 259 254 251 250 244 236 232
202 249 252 282 278 215 149 98 61 51 58 73 94 110 120 125 136 148 152 151 145 146 160 156 152 156 188 221 222 208 217 222 222 221 220 217 222 229 238 244 251 256 261 259 253 246 245 241 239
223 270 289 306 6 92 88 80 89 58 64 87 93 89 94 99 90 90 106 119 128 137 141 143 149 163 179 211 268 233 245 250 255 244 231 223 217 223 223 240 248 254 259 256 255 253 251 250 247
233 234 356 1 47 72 93 72 74 55 64 87 87 83 83 87 88 83 83 101 110 115 118 120 122 133 128 131 125 155 197 178 320 285 250 235 226 223 220 238 246 251 255 253 250 256 257 256 254
269 23 21 21 37 98 93 56 51 64 81 83 85 86 80 73 74 80 92 99 106 108 108 112 118 112 115 122 136 116 72 83 102 248 257 236 218 205 203 227 245 251 255 263 270 275 272 271 265
27 43 27 345 17 64 95 108 76 75 100 95 94 93 88 73 71 82 100 109 113 116 114 117 123 117 116 117 110 96 84 74 72 89 47 18 243 199 193 227 249 262 270 268 265 265 275 271 269
30 40 348 324 4 66 102 142 193 140 120 117 113 110 108 97 82 95 119 125 131 131 129 127 125 131 131 124 119 107 89 65 42 58 55 33 18 268 214 250 265 277 279 278 278 256 248 268 274
244 199 227 304 3 68 100 132 161 167 140 135 137 140 132 142 168 178 155 145 144 141 138 138 137 139 129 114 100 74 62 46 47 48 43 41 22 10 351 279 290 299 289 285 280 273 257 260 273
168 162 161 76 42 70 100 129 166 170 160 173 184 179 186 194 192 188 184 170 152 149 148 153 152 153 138 122 120 104 68 26 27 27 36 31 17 4 348 318 313 301 272 269 269 265 276 275 275
139 134 133 93 63 92 115 130 198 201 209 211 219 205 196 205 208 207 200 194 189 186 183 176 177 171 166 147 138 137 128 53 347 350 8 12 2 348 337 320 300 291 281 283 270 240 252 268 250
171 170 176 154 95 58 68 359 253 250 272 253 243 224 210 213 213 216 212 210 206 207 204 191 189 184 173 145 108 76 52 20 358 348 334 334 341 335 329 315 295 287 267 267 265 235 225 246 261
231 189 135 119 96 35 37 311 290 277 296 260 249 237 229 228 222 221 220 219 216 216 201 195 192 194 189 160 150 157 177 245 255 270 293 309 316 315 311 304 296 288 274 266 265 242 222 221 245
120 81 91 92 98 58 28 37 296 327 269 257 248 236 234 232 226 225 223 222 216 200 191 191 188 203 205 187 173 181 228 243 274 292 299 303 307 306 299 292 288 283 274 268 264 259 237 223 229
118 75 60 54 64 31 345 36 292 253 233 251 250 244 243 242 234 229 224 211 210 189 182 178 183 213 218 212 213 222 248 266 283 289 292 292 294 297 292 288 275 272 268 266 263 254 246 238 237
89 89 39 8 14 276 289 266 258 255 233 227 242 251 245 241 229 219 207 196 190 178 176 168 177 225 251 259 268 261 259 259 260 268 271 275 282 283 285 290 278 271 263 264 262 256 253 243 240
159 136 155 194 219 274 317 258 259 253 247 239 240 243 242 239 214 200 193 184 181 176 166 161 176 224 266 272 276 275 266 255 256 259 258 261 263 268 274 278 273 271 268 268 260 258 257 249 244
140 153 148 123 113 41 294 289 302 258 255 237 229 222 230 217 195 186 176 167 165 172 183 184 188 227 263 267 272 281 277 264 266 271 266 265 265 273 272 271 272 272 269 264 258 255 260 258 252
127 139 102 109 129 262 300 283 252 254 244 236 226 221 220 201 189 179 165 161 173 193 206 204 213 239 261 271 273 279 280 276 273 277 276 274 274 274 280 279 275 273 270 266 258 257 258 258 257
114 98 101 104 140 150 240 269 227 223 224 218 222 215 206 199 192 187 180 177 198 228 243 258 263 265 273 275 278 282 282 283 282 277 276 277 279 279 278 277 277 274 271 267 260 257 257 255 259
184 157 149 146 191 167 180 264 260 236 233 216 220 212 196 189 181 180 187 204 245 266 276 275 273 271 270 274 281 280 282 287 286 282 280 280 280 280 277 276 276 275 272 265 259 260 260 254 255
Height
1514 1516 1518 1520 1522 1526 1523 1510 1500 1494 1490 1489 1488 1488 1491 1495 1499 1504 1501 1502 1507 1511 1515 1519 1522 1526 1528 1530 1532 1534 1536 1537 1539 1541 1542 1543 1545 1546 1547 1548 1549 1550 1551 1552 1553 1553 1554 1554 1555
1515 1517 1520 1521 1525 1530 1519 1502 1496 1492 1490 1490 1490 1491 1493 1496 1497 1498 1500 1504 1508 1512 1516 1520 1524 1527 1529 1532 1533 1535 1537 1538 1540 1541 1543 1544 1545 1547 1548 1549 1550 1551 1552 1553 1554 1554 1555 1555 1556
1516 1518 1520 1522 1525 1526 1514 1497 1493 1490 1489 1490 1491 1493 1495 1498 1499 1500 1502 1505 1510 1514 1518 1521 1525 1528 1531 1533 1535 1537 1538 1539 1541 1542 1543 1545 1546 1547 1548 1550 1551 1552 1553 1554 1554 1555 1556 1556 1557
1516 1519 1520 1524 1524 1515 1505 1495 1491 1490 1489 1490 1492 1496 1498 1501 1501 1502 1504 1507 1511 1515 1519 1523 1526 1529 1532 1534 1536 1538 1539 1541 1542 1543 1544 1545 1547 1548 1549 1550 1551 1552 1553 1554 1555 1556 1557 1557 1558
1517 1518 1523 1527 1521 1508 1498 1493 1490 1490 1491 1492 1493 1498 1501 1502 1502 1504 1506 1508 1512 1516 1520 1524 1527 1530 1533 1535 1537 1539 1540 1541 1543 1544 1545 1546 1547 1548 1549 1550 1551 1552 1553 1554 1555 1556 1557 1558 1559
1517 1519 1529 1530 1518 1504 1496 1493 1490 1492 1494 1495 1496 1500 1503 1503 1505 1507 1508 1511 1514 1517 1521 1525 1528 1531 1534 1536 1538 1539 1541 1542 1543 1544 1545 1546 1547 1548 1549 1550 1551 1552 1553 1554 1555 1556 1557 1558 1559
1518 1522 1527 1524 1518 1507 1498 1494 1494 1494 1495 1497 1498 1501 1504 1505 1507 1508 1510 1513 1516 1519 1522 1526 1529 1531 1534 1536 1538 1540 1541 1542 1543 1544 1545 1546 1547 1548 1549 1550 1551 1552 1553 1554 1555 1555 1556 1557 1558
1517 1521 1524 1523 1517 1509 1499 1496 1497 1496 1497 1499 1500 1502 1504 1506 1507 1510 1512 1514 1517 1520 1524 1527 1529 1532 1534 1536 1538 1540 1541 1542 1543 1544 1545 1546 1546 1547 1548 1549 1550 1551 1552 1552 1553 1554 1555 1556 1557
1516 1525 1528 1520 1513 1506 1499 1498 1499 1499 1499 1500 1501 1502 1504 1506 1508 1511 1513 1516 1518 1522 1525 1527 1530 1532 1535 1537 1538 1539 1540 1541 1542 1543 1544 1545 1545 1546 1547 1547 1548 1549 1550 1551 1551 1552 1553 1554 1555
1515 1525 1519 1508 1505 1502 1500 1500 1500 1500 1501 1503 1504 1504 1506 1508 1511 1512 1514 1516 1519 1522 1525 1528 1530 1533 1535 1537 1538 1539 1540 1541 1542 1542 1543 1544 1544 1545 1545 1546 1546 1547 1548 1549 1549 1550 1551 1552 1553
1512 1514 1507 1503 1501 1501 1501 1501 1502 1502 1505 1506 1507 1506 1507 1510 1513 1515 1516 1518 1521 1523 1526 1528 1531 1533 1534 1536 1537 1538 1539 1540 1540 1541 1542 1542 1543 1543 1543 1544 1544 1545 1546 1546 1546 1547 1548 1549 1549
1510 1506 1504 1501 1499 1499 1500 1502 1504 1506 1509 1508 1508 1508 1510 1512 1514 1516 1518 1520 1522 1525 1527 1529 1531 1533 1535 1536 1537 1538 1539 1539 1539 1540 1540 1540 1541 1541 1541 1542 1542 1542 1543 1543 1543 1544 1544 1545 1545
1507 1504 1502 1500 1498 1499 1500 1503 1506 1510 1510 1510 1510 1511 1513 1515 1516 1518 1520 1522 1523 1525 1527 1529 1531 1533 1534 1535 1536 1536 1536 1537 1537 1538 1538 1538 1538 1538 1539 1539 1539 1539 1540 1539 1539 1540 1540 1540 1541
1504 1503 1502 1501 1499 1500 1502 1506 1508 1513 1512 1512 1512 1513 1515 1516 1518 1519 1520 1522 1524 1525 1527 1528 1530 1532 1533 1534 1534 1534 1534 1534 1535 1535 1535 1535 1535 1536 1536 1536 1537 1536 1536 1536 1535 1535 1535 1535 1536
1503 1503 1503 1502 1501 1503 1503 1511 1513 1514 1514 1514 1514 1515 1516 1518 1519 1520 1521 1523 1524 1526 1527 1528 1529 1530 1532 1532 1532 1533 1532 1532 1533 1533 1533 1533 1533 1533 1533 1533 1533 1533 1532 1532 1531 1530 1530 1530 1530
1503 1508 1513 1507 1504 1504 1508 1520 1516 1515 1514 1515 1516 1516 1517 1519 1520 1521 1522 1523 1524 1525 1526 1527 1529 1530 1530 1531 1531 1531 1531 1531 1531 1531 1532 1531 1530 1530 1530 1530 1530 1529 1529 1528 1527 1527 1526 1526 1526
1512 1517 1516 1510 1506 1506 1509 1518 1516 1515 1515 1515 1516 1517 1518 1519 1521 1522 1523 1523 1525 1526 1527 1528 1529 1529 1530 1530 1531 1531 1530 1530 1530 1530 1530 1529 1529 1528 1528 1527 1527 1526 1525 1525 1524 1523 1523 1522 1521
1515 1516 1515 1514 1509 1509 1513 1516 1515 1515 1516 1515 1517 1518 1518 1519 1522 1523 1524 1524 1525 1526 1527 1528 1529 1529 1529 1530 1530 1530 1530 1529 1529 1528 1528 1528 1527 1526 1525 1524 1524 1523 1522 1522 1521 1520 1519 1519 1517
1506 1511 1515 1513 1510 1513 1516 1518 1517 1516 1517 1517 1517 1518 1519 1520 1522 1523 1524 1525 1525 1526 1527 1528 1528 1529 1529 1530 1530 1529 1529 1528 1528 1527 1526 1525 1524 1523 1522 1522 1521 1520 1519 1519 1518 1517 1516 1515 1514
1506 1512 1515 1514 1511 1514 1519 1520 1518 1517 1517 1517 1518 1517 1518 1520 1521 1523 1524 1525 1525 1526 1527 1527 1528 1528 1529 1529 1529 1528 1527 1526 1526 1525 1524 1523 1521 1520 1519 1518 1517 1516 1516 1515 1514 1514 1512 1512 1511
1507 1510 1513 1515 1515 1516 1520 1523 1521 1518 1517 1517 1518 1517 1518 1519 1520 1522 1523 1524 1525 1525 1526 1527 1527 1528 1528 1527 1527 1526 1525 1524 1523 1522 1521 1519 1518 1516 1515 1514 1513 1512 1511 1511 1511 1510 1509 1508 1509
1509 1503 1506 1512 1521 1530 1526 1535 1524 1519 1518 1517 1516 1516 1517 1518 1519 1521 1522 1523 1524 1525 1525 1526 1526 1526 1526 1525 1525 1524 1523 1522 1520 1519 1517 1516 1514 1513 1511 1510 1509 1508 1507 1507 1506 1506 1505 1505 1505
1505 1504 1508 1515 1524 1530 1531 1535 1529 1521 1519 1516 1514 1514 1515 1516 1517 1519 1520 1521 1522 1523 1524 1524 1524 1524 1524 1523 1522 1521 1520 1519 1517 1515 1514 1512 1511 1509 1508 1506 1504 1503 1502 1502 1501 1501 1501 1500 1500
1503 1509 1515 1523 1530 1540 1536 1538 1534 1523 1517 1514 1512 1512 1513 1514 1515 1516 1518 1519 1520 1521 1521 1522 1522 1521 1521 1520 1519 1518 1517 1515 1513 1512 1510 1508 1507 1505 1504 1502 1500 1499 1498 1497 1497 1496 1496 1496 1496
1505 1520 1537 1539 1547 1545 1536 1537 1532 1514 1510 1510 1510 1510 1511 1512 1513 1514 1515 1517 1518 1518 1519 1519 1518 1518 1518 1517 1516 1515 1513 1511 1509 1508 1506 1504 1502 1501 1499 1497 1496 1494 1493 1492 1492 1491 1491 1491 1491
1508 1516 1535 1542 1547 1544 1536 1537 1522 1508 1507 1507 1507 1508 1509 1510 1511 1512 1513 1514 1515 1516 1517 1516 1516 1515 1515 1514 1513 1511 1509 1508 1506 1504 1502 1500 1498 1496 1494 1492 1491 1489 1488 1487 1486 1486 1486 1486 1485
1508 1515 1517 1534 1540 1544 1539 1530 1515 1504 1505 1505 1505 1506 1507 1508 1509 1511 1512 1513 1514 1514 1514 1514 1513 1513 1512 1511 1509 1508 1506 1504 1502 1499 1497 1495 1493 1491 1489 1487 1486 1484 1483 1482 1481 1480 1480 1480 1480
1499 1510 1524 1534 1544 1546 1537 1532 1525 1509 1505 1503 1504 1504 1505 1507 1508 1509 1510 1511 1512 1512 1512 1512 1511 1510 1509 1507 1506 1504 1502 1500 1497 1495 1493 1490 1488 1486 1484 1482 1481 1479 1478 1477 1475 1474 1474 1474 1474
1503 1511 1523 1534 1534 1545 1546 1535 1506 1503 1500 1500 1501 1502 1503 1505 1507 1508 1509 1510 1511 1510 1510 1509 1508 1507 1506 1504 1502 1500 1498 1496 1493 1491 1488 1486 1484 1481 1479 1477 1475 1474 1472 1471 1470 1469 1468 1468 1467
1496 1502 1516 1525 1532 1538 1540 1531 1496 1496 1495 1496 1498 1500 1502 1504 1506 1507 1508 1509 1509 1508 1507 1506 1505 1504 1502 1501 1499 1497 1494 1492 1489 1487 1484 1481 1479 1477 1474 1472 1470 1468 1467 1465 1464 1463 1462 1461 1461